EW2612 Weather Reports


time (UTC)temp
C
wind
direction
speed
KPH
gust
KPH
rain 1hr
cm
rain 24hr
cm
rain mn
cm
humidity
%
barometer
mb
20260506221551 17 328 0.0 0.0 0.00 0.00 0.03 77 1012.4
20260506220052 17 36 1.6 0.0 0.00 0.00 0.03 75 1011.9
20260506214544 17 344 1.6 0.0 0.00 0.00 0.03 71 1012.4
20260506213050 17 360 3.2 0.0 0.00 0.00 0.03 72 1012.2
20260506211540 17 24 1.6 0.0 0.00 0.00 0.03 72 1012.3
20260506210042 17 10 1.6 0.0 0.00 0.00 0.03 72 1012.3
20260506204539 17 309 3.2 0.0 0.00 0.00 0.03 70 1012.6
20260506203037 17 34 3.2 0.0 0.00 0.00 0.03 71 1012.5
20260506201542 17 292 3.2 0.0 0.00 0.00 0.03 73 1012.6
20260506200037 16 24 4.8 0.0 0.00 0.00 0.03 74 1013.1
20260506194535 15 331 4.8 0.0 0.00 0.00 0.03 76 1013.3
20260506193034 15 38 3.2 0.0 0.00 0.00 0.03 78 1013.5
20260506191533 14 323 1.6 0.0 0.00 0.00 0.03 80 1013.5
20260506190031 14 42 0.0 0.0 0.00 0.00 0.03 82 1013.6
20260506184533 13 317 1.6 0.0 0.00 0.00 0.03 82 1013.9
20260506183032 13 324 1.6 0.0 0.00 0.00 0.03 83 1014.0
20260506181529 13 342 4.8 0.0 0.00 0.00 0.03 84 1013.4
20260506180032 13 341 4.8 0.0 0.00 0.00 0.03 85 1012.5
20260506174533 12 340 3.2 0.0 0.00 0.00 0.03 88 1012.4
20260506173027 12 350 1.6 0.0 0.00 0.00 0.03 88 1012.9
20260506171537 12 349 1.6 0.0 0.00 0.00 0.03 89 1013.1
20260506170025 12 28 3.2 0.0 0.00 0.00 0.03 89 1012.8
20260506164525 12 315 3.2 0.0 0.00 0.00 0.03 89 1013.1
20260506163023 12 323 1.6 0.0 0.00 0.00 0.03 89 1013.1
20260506161524 12 14 4.8 0.0 0.00 0.00 0.03 89 1013.0
20260506160018 12 5 3.2 0.0 0.00 0.00 0.03 89 1012.8
20260506154519 12 44 1.6 0.0 0.00 0.00 0.00 89 1012.6
20260506153015 12 5 4.8 0.0 0.00 0.00 0.00 88 1012.0
20260506151516 11 5 1.6 0.0 0.00 0.00 0.00 88 1012.7
20260506150007 11 263 1.6 0.0 0.00 0.00 0.00 86 1014.4
20260506144506 12 312 0.0 0.0 0.00 0.00 0.00 85 1014.7
20260506143006 11 311 1.6 0.0 0.00 0.00 0.00 84 1013.9
20260506141502 12 46 3.2 0.0 0.00 0.00 0.00 83 1012.4
20260506140104 11 305 3.2 0.0 0.00 0.00 0.00 82 1012.5
20260506134557 12 304 3.2 0.0 0.00 0.00 0.00 82 1012.9
20260506133054 12 355 3.2 0.0 0.00 0.00 0.00 81 1012.3
20260506131605 12 38 4.8 0.0 0.00 0.00 0.00 80 1012.1
20260506130051 12 5 3.2 0.0 0.00 0.00 0.00 79 1011.8
20260506124546 12 341 1.6 0.0 0.00 0.00 0.00 77 1011.4
20260506123045 12 41 4.8 0.0 0.00 0.00 0.00 76 1011.3
20260506121539 13 304 1.6 0.0 0.00 0.00 0.00 77 1011.2
20260506120037 13 329 3.2 0.0 0.00 0.00 0.00 77 1010.9
20260506114541 13 329 3.2 0.0 0.00 0.00 0.00 76 1010.8
20260506113033 13 329 3.2 0.0 0.00 0.00 0.00 76 1010.6
20260506111530 13 302 4.8 0.0 0.00 0.00 0.00 77 1010.4
20260506110033 13 333 6.4 0.0 0.00 0.00 0.00 77 1009.8
20260506104525 13 5 4.8 0.0 0.00 0.00 0.00 77 1009.9
20260506103023 14 281 8.0 0.0 0.00 0.00 0.00 77 1009.6
20260506101521 14 9 4.8 0.0 0.00 0.00 0.00 77 1009.0
20260506100023 14 292 3.2 0.0 0.00 0.00 0.00 77 1008.9
20260506094516 14 264 6.4 0.0 0.00 0.00 0.00 77 1008.7
20260506093013 15 277 4.8 0.0 0.00 0.00 0.00 77 1008.7
20260506091511 15 285 6.4 0.0 0.00 0.00 0.00 77 1008.6
20260506090008 15 299 4.8 0.0 0.00 0.00 0.00 78 1008.6
20260506084507 15 327 6.4 0.0 0.00 0.00 0.00 77 1008.5
20260506083004 15 305 4.8 0.0 0.00 0.00 0.00 78 1008.2
20260506081502 16 315 3.2 0.0 0.00 0.00 0.00 77 1008.1
20260506080104 16 332 3.2 0.0 0.00 0.00 0.00 78 1008.1
20260506073056 16 17 1.6 0.0 0.00 0.00 0.00 78 1007.7
20260506071600 16 29 1.6 0.0 0.00 0.00 0.00 79 1007.8
20260506061549 16 15 4.8 0.0 0.00 0.00 0.00 77 1007.6
20260506044540 18 309 4.8 0.0 0.00 0.00 0.00 75 1007.5
20260506043030 18 57 4.8 0.0 0.00 0.00 0.00 74 1007.5
20260506041527 19 290 6.4 0.0 0.00 0.00 0.00 74 1007.6
20260506040023 20 321 6.4 0.0 0.00 0.00 0.00 73 1007.5
20260506034520 20 19 3.2 0.0 0.00 0.00 0.00 72 1007.1
20260506033026 20 283 4.8 0.0 0.00 0.00 0.00 71 1006.8
20260506031528 20 351 4.8 0.0 0.00 0.00 0.00 70 1006.4
20260506030033 21 281 4.8 0.0 0.00 0.00 0.00 69 1006.0
20260506024521 21 17 4.8 0.0 0.00 0.00 0.00 69 1006.0
20260506023009 21 360 4.8 0.0 0.00 0.00 0.00 68 1005.6
20260506021508 22 19 6.4 0.0 0.00 0.00 0.00 69 1005.4
20260506020005 22 319 6.4 0.0 0.00 0.00 0.00 68 1005.0
20260506014503 22 25 6.4 0.0 0.00 0.00 0.00 67 1004.5
20260506013103 23 41 6.4 0.0 0.00 0.00 0.00 67 1004.2
20260506011559 23 340 4.8 0.0 0.00 0.00 0.00 67 1003.7
20260506010106 23 322 6.4 0.0 0.00 0.00 0.00 65 1003.6
20260506004558 24 330 4.8 0.0 0.00 0.00 0.00 63 1003.5
20260506003058 25 5 3.2 0.0 0.00 0.00 0.00 62 1003.0
20260506001601 25 285 3.2 0.0 0.00 0.00 0.00 62 1003.2
20260506000100 25 355 8.0 0.0 0.00 0.00 0.00 61 1003.3
20260505234556 26 328 6.4 0.0 0.00 0.00 0.00 59 1002.9
20260505233112 26 32 6.4 0.0 0.00 0.00 0.00 59 1002.7
20260505231555 28 22 9.7 0.0 0.00 0.00 0.00 58 1002.4
20260505230054 29 314 8.0 0.0 0.00 0.00 0.00 52 1002.1
20260505224554 30 319 8.0 0.0 0.00 0.00 0.00 47 1002.1
20260505223052 31 292 3.2 0.0 0.00 0.00 0.00 47 1001.8